Lapse_Rate
4.6 4.5 4.6 4.0 3.1 2.9 2.5 2.1 1.7 1.4 1.0 0.8 0.6 0.1 0.0 -0.2 -0.3 8.2 8.8 5.1 5.4 2.5 1.8 8.9 9.6 9.4 9.4 8.5 8.7 8.6 6.5 6.5 6.5 6.5 6.5 7.3 6.6 7.8 8.3 7.6 7.9 8.2 8.1 8.6 9.2
4.2 4.1 4.1 4.0 3.5 2.9 2.3 2.0 1.6 1.4 1.1 0.8 0.6 0.2 0.4 0.2 4.0 8.7 3.6 3.3 3.1 3.3 7.7 9.0 8.5 8.8 8.2 7.9 8.0 6.9 6.5 6.5 6.5 6.6 6.5 7.0 7.0 7.3 7.2 7.1 7.3 7.7 8.5 8.9 9.1
3.7 3.6 3.6 3.4 3.3 2.9 2.3 1.8 1.5 1.5 1.3 1.1 0.8 0.5 0.8 1.4 8.4 8.5 2.5 2.8 3.7 3.9 9.7 9.4 9.0 8.5 7.4 7.8 7.5 7.0 6.5 6.5 6.8 7.3 7.4 7.0 7.0 7.7 7.0 6.5 7.3 7.2 7.9 8.5 8.7
3.6 3.5 3.1 3.0 3.0 2.8 2.3 1.7 1.5 1.6 1.6 1.2 1.0 1.0 1.4 6.3 6.5 9.1 2.7 2.9 3.7 6.9 9.5 9.0 8.5 7.5 6.8 6.5 7.5 6.5 6.9 7.1 7.2 7.5 7.3 6.7 7.5 7.0 7.3 7.2 8.1 8.3 8.5 8.6 8.5
3.1 3.2 3.1 2.8 2.9 2.7 2.2 2.0 1.8 1.6 1.5 1.4 1.5 1.7 5.5 8.3 8.4 5.2 3.2 4.2 7.5 9.7 9.0 8.5 7.9 7.5 6.5 6.8 7.1 6.5 6.6 7.3 7.5 7.5 7.5 7.5 7.0 6.8 7.2 8.0 8.5 8.5 8.5 8.4 8.5
3.3 2.9 3.1 2.6 2.6 2.6 2.5 2.1 1.9 2.0 1.6 1.6 2.1 1.7 7.9 7.2 9.6 9.2 8.6 9.6 9.7 9.5 9.0 8.9 8.2 8.2 7.3 7.0 6.6 7.1 7.1 7.1 7.4 7.3 7.4 6.8 6.9 7.2 7.4 8.3 8.1 8.2 8.2 8.4 8.5
2.9 3.2 2.9 2.5 2.5 2.4 2.4 2.2 2.2 2.3 2.2 2.2 2.4 5.9 8.7 8.2 9.5 9.8 8.5 9.7 9.9 9.5 8.8 9.1 9.0 8.1 7.8 6.5 7.7 7.3 6.5 6.5 6.8 7.1 6.6 7.4 6.5 6.5 7.7 8.1 7.8 7.9 8.1 8.4 8.6
4.7 4.6 3.3 3.0 2.6 2.6 2.6 2.4 2.3 2.7 2.6 2.5 2.8 8.5 7.9 9.6 9.4 9.8 10.0 9.6 9.8 9.8 9.4 9.4 9.3 8.4 7.7 7.9 7.1 6.5 6.5 6.5 6.5 6.7 7.0 6.9 6.5 6.5 7.8 7.7 7.5 7.7 7.9 8.2 8.5
4.5 4.9 4.5 3.6 3.1 2.8 2.9 3.1 2.8 3.2 3.1 3.1 5.8 9.0 7.6 5.5 8.3 9.7 10.0 9.1 9.3 9.5 9.4 9.4 8.9 7.8 7.6 6.5 6.5 6.5 6.5 6.5 6.5 6.8 6.5 6.5 6.5 6.6 7.7 7.5 7.3 7.6 7.8 8.1 8.3
4.5 4.6 4.7 4.0 3.3 3.0 3.5 3.5 3.5 3.8 5.2 8.6 9.7 8.0 8.5 8.0 9.0 9.4 9.9 9.5 8.8 8.7 8.3 8.2 7.8 6.5 6.5 6.5 6.5 6.5 6.5 6.5 6.5 6.5 6.5 6.5 6.5 6.5 7.3 7.4 7.2 7.6 7.7 8.0 8.2
4.2 4.5 4.7 4.3 4.3 3.4 3.8 8.3 8.5 8.3 9.1 7.9 7.8 7.8 8.2 9.1 9.5 9.0 9.5 9.1 8.8 8.1 6.5 7.3 6.5 6.5 6.5 6.5 6.5 6.5 6.5 6.5 6.5 6.5 6.5 6.5 6.5 6.5 7.0 7.1 7.1 7.4 7.5 7.8 8.1
5.3 5.4 5.4 4.6 4.3 4.0 5.2 8.7 8.6 9.0 7.2 8.5 8.5 8.6 8.9 8.9 7.7 8.5 9.5 7.8 7.4 6.5 6.7 6.5 6.5 6.5 6.5 6.5 6.5 6.5 6.5 6.5 6.5 6.5 6.5 6.5 6.5 6.5 6.4 6.8 7.2 7.3 7.5 7.8 8.0
6.3 6.0 5.8 5.5 4.9 4.9 7.5 8.9 9.9 9.7 7.3 7.6 8.5 8.3 8.4 8.8 7.6 7.8 8.7 8.0 6.7 6.5 6.5 6.5 6.5 6.5 6.5 6.5 6.5 6.5 6.5 6.5 6.5 6.5 6.5 6.5 6.5 6.5 6.6 7.1 7.5 7.7 7.8 8.0 8.0
6.4 6.3 5.9 6.3 6.1 9.4 8.7 9.1 9.8 8.7 6.5 6.5 6.9 7.8 8.5 8.4 6.9 8.7 8.9 8.0 6.7 6.5 6.5 6.5 6.7 6.5 6.5 6.5 6.5 6.5 6.5 6.5 6.5 6.5 6.5 6.5 6.5 6.5 6.5 6.5 6.5 7.3 7.6 7.8 8.0
6.4 6.2 6.1 6.4 9.1 8.8 9.2 9.2 9.6 8.4 6.5 6.5 6.8 9.0 8.5 7.4 7.4 7.6 9.0 8.1 6.5 6.5 6.5 6.5 6.5 6.5 6.5 6.5 6.5 6.5 6.5 6.5 6.5 6.5 6.5 6.5 6.5 6.5 6.5 6.5 6.5 6.9 7.5 7.8 8.2
6.6 6.3 6.2 7.8 8.3 9.4 9.4 9.8 8.7 6.5 6.5 6.5 6.9 6.6 6.6 7.2 7.1 7.6 7.7 8.3 7.8 6.5 6.5 6.5 7.1 6.5 6.5 6.5 6.5 6.5 6.5 6.5 6.5 6.5 6.5 6.5 6.5 6.5 6.5 6.5 6.5 6.8 7.5 7.8 8.1
6.7 6.5 6.9 9.5 8.8 9.4 8.7 8.0 6.5 6.5 6.5 6.5 6.5 6.5 6.5 6.5 6.5 6.5 6.5 6.5 6.5 6.5 6.5 6.5 6.5 6.5 6.7 6.5 6.5 6.5 6.5 6.5 6.5 6.5 6.5 6.5 6.5 6.5 6.5 6.5 6.5 6.6 7.3 7.8 8.2
6.3 6.6 7.8 9.3 9.5 9.4 7.7 6.6 6.5 6.5 6.5 6.5 6.5 6.5 6.5 6.5 6.5 6.5 6.5 6.5 6.5 6.5 6.5 6.5 6.5 6.5 6.5 6.5 6.5 6.5 6.5 6.5 6.5 6.5 6.5 6.5 6.5 6.5 6.5 7.0 7.2 7.4 7.6 7.9 7.9
6.4 6.7 9.0 9.4 8.9 7.6 7.2 6.5 6.5 6.5 6.5 6.5 6.5 6.5 6.5 6.5 6.5 6.5 6.5 6.5 6.5 6.5 6.5 6.5 6.5 6.5 6.5 6.5 6.5 6.5 6.5 6.5 6.5 6.5 6.5 6.5 6.5 6.5 6.5 6.5 6.9 7.1 7.4 7.5 7.8
6.0 6.8 8.2 9.5 8.5 6.9 6.6 6.5 6.5 6.6 6.5 6.5 6.5 6.5 6.5 6.5 6.5 6.5 6.5 6.5 6.5 6.5 6.5 6.5 6.5 6.5 6.5 6.7 6.6 6.5 6.5 6.5 6.5 6.5 6.5 6.5 6.5 6.5 6.5 6.5 6.5 6.6 7.1 7.3 7.9
6.1 6.2 6.9 9.2 9.1 6.8 6.5 6.5 6.5 7.2 6.9 6.5 6.5 6.5 6.5 6.5 6.5 6.5 6.5 6.5 6.5 6.5 6.5 6.5 6.5 6.5 6.5 6.5 6.5 6.5 6.5 6.5 6.5 6.5 6.5 6.5 6.5 6.5 6.5 6.5 6.5 6.7 7.4 7.4 7.8
6.3 6.5 6.6 7.1 6.7 6.8 6.5 6.5 6.7 6.6 7.2 6.5 6.5 6.5 6.5 6.5 6.5 6.5 6.5 6.5 6.9 6.7 6.5 6.5 6.5 6.5 6.5 6.5 6.5 6.5 6.5 6.5 6.5 6.5 6.5 6.5 6.5 6.5 6.5 6.5 6.8 7.2 7.6 7.8 8.1
5.8 6.4 7.1 7.0 6.5 6.5 6.5 6.5 6.6 6.5 6.5 6.5 6.5 6.5 6.5 6.5 6.5 6.5 6.5 6.7 7.0 6.5 6.5 6.5 6.5 6.5 6.5 6.5 6.5 6.5 6.5 6.5 6.5 6.5 6.5 6.5 6.5 6.5 6.5 6.5 7.0 7.1 7.6 7.9 7.9
5.3 6.5 6.4 6.6 7.3 6.5 6.5 6.5 6.5 7.3 6.5 6.8 6.5 6.6 6.5 6.5 6.5 6.5 6.5 6.5 6.9 6.8 6.2 6.3 6.5 6.5 6.5 6.5 6.5 6.5 6.5 6.5 6.5 6.5 6.5 6.5 6.5 6.5 6.5 6.5 6.7 7.1 7.6 8.0 7.9
5.3 6.4 7.0 6.5 6.5 6.5 6.5 6.5 6.5 6.5 6.8 7.0 6.5 6.5 6.5 6.5 6.5 6.5 6.5 6.5 6.6 6.3 6.6 6.5 6.5 6.5 6.5 6.5 6.5 6.5 6.5 6.5 6.5 6.5 6.5 6.5 6.5 6.5 6.5 6.5 6.8 7.4 7.6 7.7 7.9
6.5 6.6 6.7 7.0 7.0 6.5 6.5 6.5 6.5 6.5 6.5 6.5 6.5 6.5 6.5 6.5 6.5 6.5 6.5 6.5 6.5 6.5 6.5 6.5 6.5 6.5 6.5 6.5 6.5 6.5 6.5 6.5 6.5 6.5 6.5 6.5 6.5 6.5 6.9 7.2 6.9 7.3 7.5 7.6 7.8
4.5 6.2 7.2 6.7 6.5 6.5 6.5 6.5 6.5 6.5 6.8 7.0 6.6 6.5 6.5 6.5 6.9 7.0 7.1 7.0 6.6 6.5 6.5 6.5 6.5 6.5 6.5 6.5 6.5 6.5 6.5 6.5 6.5 6.5 6.5 6.5 6.5 6.5 6.5 6.5 6.9 7.2 7.5 7.5 7.7
Wind_Speed
13 11 8 6 5 6 7 8 9 10 11 13 14 16 17 20 27 18 14 5 7 11 11 12 9 8 8 7 8 8 9 10 3 4 9 4 5 7 1 5 0 1 5 9 10
12 10 7 7 6 5 5 7 9 11 12 12 14 15 19 20 19 19 5 3 5 9 9 9 8 6 9 7 5 8 9 7 8 5 5 5 4 5 4 3 5 2 3 7 6
13 10 8 7 5 4 4 5 7 10 12 13 15 16 18 22 14 3 7 3 6 11 9 6 5 9 10 4 7 5 12 8 5 4 4 5 6 1 7 7 2 6 8 6 7
12 9 7 6 5 4 4 5 7 8 12 13 13 15 19 9 7 6 4 3 8 10 7 6 8 8 8 10 4 8 8 5 1 4 6 7 8 10 9 8 5 3 3 5 7
10 8 7 6 6 4 4 5 7 8 11 12 13 13 10 9 15 11 5 7 9 5 8 7 8 6 10 4 4 11 10 4 6 7 10 8 11 12 10 3 3 1 4 5 10
10 8 7 6 6 5 5 6 7 9 9 9 11 12 11 16 3 2 6 6 11 9 8 8 6 3 7 7 8 5 7 8 9 10 11 11 12 4 7 4 4 4 3 12 10
7 8 6 4 5 4 5 6 8 9 9 9 10 9 11 18 1 4 5 10 4 10 9 6 6 8 1 7 5 8 11 13 14 9 5 7 14 11 7 6 4 4 2 12 9
6 8 6 5 4 4 5 7 8 10 9 9 7 9 9 1 7 8 10 8 7 6 9 1 7 11 7 2 6 10 11 11 10 9 7 6 10 16 9 9 9 6 3 8 7
9 8 7 7 5 4 5 8 9 11 9 6 7 8 10 4 9 11 13 12 9 7 5 5 7 9 8 12 11 12 11 13 10 10 4 8 8 2 7 6 9 8 1 5 5
14 12 10 7 7 5 5 5 2 5 8 8 8 6 9 5 3 4 9 13 10 11 8 11 8 10 11 12 12 9 13 8 10 12 9 11 15 14 8 8 4 8 3 4 5
17 16 15 10 7 6 7 4 5 7 14 11 6 12 2 2 5 9 9 15 11 15 13 15 11 14 19 17 17 10 11 13 12 7 5 14 18 12 10 2 7 4 1 3 4
20 18 15 13 10 9 6 6 6 6 10 19 22 21 11 2 7 11 14 14 16 17 16 9 17 18 12 5 10 12 14 15 14 7 5 16 17 14 5 7 5 4 6 3 2
19 18 17 14 10 7 10 10 4 7 8 16 20 22 17 15 12 17 18 17 16 18 18 17 1 10 12 11 14 15 16 14 13 7 12 19 19 25 11 7 8 7 2 2 2
20 20 20 14 5 8 12 12 4 6 5 10 11 9 14 12 11 24 22 14 15 16 17 15 19 10 12 16 14 15 14 10 10 10 9 6 9 2 16 14 14 11 7 3 2
25 23 22 23 5 12 2 12 8 2 4 7 11 5 9 17 5 17 20 22 20 16 14 12 13 15 18 19 13 13 2 7 10 11 13 17 11 13 13 17 14 13 9 5 4
26 25 23 14 4 6 5 12 7 4 11 9 8 11 14 20 13 5 20 19 12 20 16 19 2 12 15 9 10 2 7 9 10 11 12 19 18 11 11 12 13 10 9 8 6
28 27 22 17 12 12 13 8 6 8 7 9 9 12 17 13 18 14 20 22 15 17 20 15 16 11 7 11 10 13 11 6 10 9 10 3 7 12 8 9 4 10 8 8 7
29 27 21 16 8 18 11 9 9 17 26 4 6 11 17 14 18 18 18 20 26 19 10 16 16 21 17 16 11 19 15 8 10 10 10 8 7 3 9 11 8 5 8 9 7
28 11 14 12 17 11 10 12 14 16 21 21 7 14 16 18 9 15 18 20 22 20 14 15 15 21 11 17 17 12 16 14 16 16 12 12 16 10 9 12 10 10 10 10 9
11 11 15 26 20 8 12 17 17 25 14 12 23 15 17 17 13 15 16 16 18 24 18 7 9 12 9 12 13 12 8 7 8 7 17 15 16 10 16 13 12 13 13 11 10
8 5 6 27 14 9 11 19 26 19 6 10 17 19 14 15 18 19 16 4 16 16 18 10 8 10 11 14 14 12 11 10 10 14 12 14 12 6 11 12 14 14 14 15 13
2 7 11 14 10 11 11 32 25 26 10 7 7 7 12 6 15 17 13 6 3 6 14 16 6 12 16 12 17 18 21 19 11 17 12 13 17 2 7 7 11 14 16 17 15
2 2 12 12 11 15 26 29 24 25 17 15 9 7 5 9 8 10 9 7 4 6 1 7 6 9 14 13 9 15 21 19 20 16 23 14 10 4 2 4 8 10 16 17 16
2 4 4 8 5 20 26 20 26 24 19 13 16 15 9 9 8 6 7 5 4 6 8 4 9 12 15 16 2 6 19 19 21 15 18 20 24 21 8 9 10 8 16 17 16
5 3 5 9 12 17 25 21 24 26 20 13 7 14 16 14 14 12 8 6 5 5 1 4 9 16 21 23 11 11 13 18 18 17 12 18 19 21 17 12 18 13 15 15 17
4 4 4 16 24 22 21 25 26 25 22 22 18 15 17 13 14 12 14 15 15 14 15 11 9 17 22 23 22 22 22 26 22 23 23 23 25 23 22 20 16 17 16 17 17
3 4 5 9 22 18 20 27 27 23 21 24 23 20 18 17 16 15 14 10 12 13 14 16 13 15 21 20 20 18 29 23 25 26 24 23 24 24 20 17 13 12 18 17 17
Wind_Direction
242 233 218 237 244 278 298 308 317 320 325 323 320 321 313 313 311 288 272 11 354 331 313 264 251 244 238 245 249 257 257 248 126 210 96 129 246 127 2 256 68 302 46 20 350
220 216 213 224 244 260 288 312 320 321 324 323 319 321 312 315 304 284 75 57 313 295 253 232 236 235 227 230 215 243 241 10 31 37 111 170 232 354 299 233 284 235 68 12 339
202 206 216 223 234 254 284 305 316 322 323 323 321 318 312 313 292 91 85 96 303 289 262 264 273 255 253 234 196 212 261 42 117 12 318 293 261 215 265 261 182 341 311 332 346
197 201 204 220 229 252 285 307 310 316 320 318 319 317 310 296 300 93 143 259 281 280 245 216 227 233 251 228 197 256 239 277 355 190 281 266 297 281 279 276 332 288 347 302 355
184 195 198 215 247 252 279 289 292 302 315 314 319 312 311 261 262 117 171 219 257 252 242 226 244 237 245 260 249 246 259 213 256 254 264 279 267 267 262 61 182 152 260 353 22
181 191 198 207 234 243 273 284 284 297 304 304 313 305 267 270 26 172 215 227 244 235 226 241 257 288 287 250 251 31 293 258 249 257 258 270 260 232 201 169 226 245 291 60 36
187 197 197 213 231 241 257 271 278 287 298 299 300 282 269 254 113 206 225 231 244 258 242 240 271 229 136 227 234 263 258 248 234 239 234 255 249 214 152 200 255 260 342 75 44
214 210 188 203 215 240 256 266 269 277 286 298 271 274 266 350 302 239 231 210 211 237 254 234 245 250 235 65 223 246 236 258 171 179 159 242 283 149 170 225 283 309 356 95 68
203 207 206 189 209 231 256 267 273 271 262 253 247 232 264 104 228 234 220 222 194 198 208 203 233 226 179 223 221 212 255 210 180 195 236 232 285 131 181 259 281 294 91 98 90
197 196 205 202 200 190 240 271 159 226 212 223 254 268 236 240 144 208 216 218 191 196 195 207 212 217 214 210 224 268 207 226 255 157 211 247 262 266 256 253 299 285 108 115 95
195 191 183 194 202 189 186 214 219 213 221 221 221 242 190 194 197 215 193 186 206 193 204 205 213 215 218 219 258 291 278 273 275 263 236 257 262 262 252 155 227 225 162 110 86
194 186 180 179 187 196 248 231 322 356 287 227 250 250 251 321 213 201 181 190 186 199 209 182 228 235 249 278 245 238 250 255 261 263 294 265 267 258 192 211 262 236 180 155 124
196 177 171 171 175 194 209 223 311 312 266 263 233 233 223 213 237 186 198 220 198 211 200 222 307 204 243 220 233 235 248 258 269 264 251 264 267 250 146 176 180 202 177 148 39
193 178 167 151 169 215 209 224 214 327 281 251 211 243 205 204 235 231 190 212 215 227 223 237 244 205 224 231 222 252 237 240 261 253 263 109 279 181 181 190 197 191 202 176 134
184 174 163 167 334 197 152 178 144 241 276 117 139 102 180 199 114 201 193 223 237 213 232 226 223 205 226 228 232 259 147 226 243 250 266 262 264 268 237 181 199 195 182 171 100
182 173 170 192 229 235 145 154 153 182 235 191 149 202 184 206 223 124 193 225 231 245 216 247 247 209 230 216 198 224 207 215 233 251 256 250 241 272 221 192 191 170 166 161 154
185 175 179 181 203 187 171 162 163 217 209 197 192 187 207 188 201 186 187 196 196 203 221 219 210 215 212 175 199 194 205 233 220 210 246 149 268 255 129 151 139 168 180 157 156
189 175 193 196 187 179 178 188 196 225 231 111 181 189 206 178 210 200 192 200 214 215 220 212 209 207 199 210 189 208 213 231 248 247 276 121 232 210 93 124 130 157 167 154 163
188 185 192 199 191 191 193 198 209 210 214 220 191 200 208 189 214 194 213 208 200 214 222 202 223 178 182 211 237 193 221 249 273 277 271 254 259 134 143 148 167 174 173 169 184
193 194 199 189 192 189 203 216 221 231 263 245 222 216 204 195 206 194 187 205 207 206 230 225 179 187 166 204 232 234 222 212 229 255 245 255 254 277 177 185 189 188 188 179 188
220 199 204 182 180 204 216 217 230 236 197 238 235 234 245 196 205 192 185 136 198 201 209 232 246 168 154 205 191 199 223 226 245 237 261 271 272 65 167 191 195 197 193 178 190
219 183 190 171 180 204 214 215 225 239 203 225 311 279 235 215 206 195 201 167 164 175 200 217 235 227 206 219 231 231 212 226 223 238 258 267 269 165 164 190 195 196 190 175 191
269 196 177 171 183 191 218 222 228 235 231 229 237 240 270 198 220 221 209 75 88 203 275 179 227 232 249 258 241 235 235 218 245 238 248 249 245 117 152 228 211 211 177 175 188
237 227 197 184 200 201 204 215 222 230 242 263 243 235 220 232 243 212 201 94 25 66 25 356 246 246 242 239 156 253 256 254 251 236 252 250 261 267 189 265 285 203 164 182 185
173 260 241 171 193 214 201 208 210 210 204 220 259 239 240 232 235 232 256 187 245 168 221 29 257 250 252 259 178 239 249 259 250 254 243 265 260 263 279 284 211 206 171 190 183
209 176 245 181 186 204 212 210 213 214 208 226 228 243 244 254 263 237 230 239 236 242 241 181 237 253 267 281 266 265 254 251 260 247 249 255 257 260 263 273 269 177 181 194 192
213 249 207 201 190 203 208 209 212 209 217 212 222 230 243 236 252 263 285 232 251 254 251 252 241 246 252 244 258 265 255 266 264 261 264 263 265 270 277 282 242 193 182 197 191